,,Stat1,,Stat2,,Stat3,,Stat4,,Wind1,,Wind1,
time,status,PR1M_SUM,status,RH1M_AVG,status,SR1M_AVG,status,TA1M_AVG,status,W1dAve1m,status,W1sAve1m,
2000-03-14, 00:01:01,VALID,0,VALID,100,VALID,0.0169808,VALID,17.6587,VALID,210,VALID,0.484797,
2000-03-14, 00:02:00,VALID,0,VALID,100,VALID,0,VALID,17.6654,VALID,205,VALID,0.231908,
2000-03-14, 00:03:00,VALID,0,VALID,100,VALID,-0.101885,VALID,17.66,VALID,201,VALID,0.213672,
2000-03-14, 00:04:00,VALID,0,VALID,100,VALID,-0.0849042,VALID,17.6605,VALID,191,VALID,0.750372,
2000-03-14, 00:05:00,VALID,0,VALID,100,VALID,-0.101885,VALID,17.6637,VALID,158,VALID,0.626689,
2000-03-14, 00:06:00,VALID,0,VALID,100,VALID,-0.0679233,VALID,17.6635,VALID,157,VALID,0.494591,
2000-03-14, 00:07:00,VALID,0,VALID,100,VALID,-0.0849042,VALID,17.6566,VALID,157,VALID,0.619474,
2000-03-14, 00:08:00,VALID,0,VALID,100,VALID,-0.0679233,VALID,17.6503,VALID,155,VALID,0.626953,
2000-03-14, 00:09:00,VALID,0,VALID,100,VALID,-0.0849042,VALID,17.628,VALID,176,VALID,0.410979,
2000-03-14, 00:10:00,VALID,0,VALID,100,VALID,-0.0679233,VALID,17.6118,VALID,184,VALID,0.219922,
2000-03-14, 00:11:00,VALID,0,VALID,100,VALID,-0.0339617,VALID,17.6245,VALID,184,VALID,0,
2000-03-14, 00:12:01,VALID,0,VALID,100,VALID,-0.101885,VALID,17.6506,VALID,181,VALID,0.102829,
2000-03-14, 00:13:00,VALID,0,VALID,100,VALID,-0.0849042,VALID,17.6602,VALID,177,VALID,0.326923,
2000-03-14, 00:14:00,VALID,0,VALID,100,VALID,-0.0679233,VALID,17.6475,VALID,173,VALID,0.375633,
2000-03-14, 00:15:00,VALID,0,VALID,100,VALID,-0.0849042,VALID,17.6794,VALID,165,VALID,0.267681,
2000-03-14, 00:16:00,VALID,0,VALID,100,VALID,-0.0509425,VALID,17.6923,VALID,158,VALID,0.117393,
2000-03-14, 00:17:00,VALID,0,VALID,100,VALID,-0.0339617,VALID,17.7151,VALID,148,VALID,0,
2000-03-14, 00:18:00,VALID,0,VALID,100,VALID,0,VALID,17.6888,VALID,145,VALID,0,
2000-03-14, 00:19:00,VALID,0,VALID,100,VALID,0.0169808,VALID,17.6531,VALID,138,VALID,0,
2000-03-14, 00:20:00,VALID,0,VALID,100,VALID,0,VALID,17.6268,VALID,141,VALID,0,
2000-03-14, 00:21:00,VALID,0,VALID,100,VALID,0,VALID,17.6402,VALID,142,VALID,0,
2000-03-14, 00:22:00,VALID,0,VALID,100,VALID,0,VALID,17.6398,VALID,142,VALID,0,
2000-03-14, 00:23:01,VALID,0,VALID,100,VALID,0,VALID,17.6494,VALID,142,VALID,0,
2000-03-14, 00:24:00,VALID,0,VALID,100,VALID,0,VALID,17.6624,VALID,149,VALID,0,
2000-03-14, 00:25:00,VALID,0,VALID,100,VALID,-0.0169808,VALID,17.6402,VALID,154,VALID,0,
2000-03-14, 00:26:00,VALID,0,VALID,100,VALID,0.0169808,VALID,17.6232,VALID,159,VALID,0,
2000-03-14, 00:27:00,VALID,0,VALID,100,VALID,0.0339617,VALID,17.6139,VALID,184,VALID,0,
2000-03-14, 00:28:00,VALID,0,VALID,100,VALID,0,VALID,17.6172,VALID,221,VALID,0,
2000-03-14, 00:29:00,VALID,0,VALID,100,VALID,0.0169808,VALID,17.6271,VALID,241,VALID,0,
2000-03-14, 00:30:00,VALID,0,VALID,100,VALID,0,VALID,17.6204,VALID,233,VALID,0,
2000-03-14, 00:31:00,VALID,0,VALID,100,VALID,0,VALID,17.6241,VALID,217,VALID,0,
2000-03-14, 00:32:00,VALID,0,VALID,100,VALID,-0.0169808,VALID,17.6109,VALID,187,VALID,0,
2000-03-14, 00:33:01,VALID,0,VALID,100,VALID,0,VALID,17.5817,VALID,158,VALID,0,
2000-03-14, 00:34:01,VALID,0,VALID,100,VALID,0.0339617,VALID,17.5756,VALID,156,VALID,0,
2000-03-14, 00:35:00,VALID,0,VALID,100,VALID,0,VALID,17.5591,VALID,163,VALID,0.231419,
2000-03-14, 00:36:00,VALID,0,VALID,100,VALID,0,VALID,17.5561,VALID,179,VALID,0.673353,
2000-03-14, 00:37:00,VALID,0,VALID,100,VALID,0,VALID,17.5397,VALID,204,VALID,0.613582,
2000-03-14, 00:38:00,VALID,0,VALID,100,VALID,0.0169808,VALID,17.5595,VALID,213,VALID,0.4898,
2000-03-14, 00:39:00,VALID,0,VALID,100,VALID,0,VALID,17.5565,VALID,217,VALID,0.497944,
2000-03-14, 00:40:00,VALID,0,VALID,100,VALID,-0.0169808,VALID,17.563,VALID,205,VALID,0.344161,
2000-03-14, 00:41:00,VALID,0,VALID,100,VALID,0,VALID,17.5464,VALID,215,VALID,0.690039,
2000-03-14, 00:42:00,VALID,0,VALID,100,VALID,0,VALID,17.5462,VALID,212,VALID,0.433183,
2000-03-14, 00:43:00,VALID,0,VALID,100,VALID,0.0169808,VALID,17.5563,VALID,196,VALID,0.232279,
2000-03-14, 00:44:00,VALID,0,VALID,100,VALID,0,VALID,17.5466,VALID,184,VALID,0.288086,
2000-03-14, 00:45:01,VALID,0,VALID,100,VALID,-0.0169808,VALID,17.5399,VALID,203,VALID,0.335938,
2000-03-14, 00:46:00,VALID,0,VALID,100,VALID,0,VALID,17.5302,VALID,208,VALID,0.270703,
2000-03-14, 00:47:00,VALID,0,VALID,100,VALID,0,VALID,17.5371,VALID,208,VALID,0.0483141,
2000-03-14, 00:48:00,VALID,0,VALID,100,VALID,-0.0849042,VALID,17.5186,VALID,206,VALID,0,
2000-03-14, 00:49:00,VALID,0,VALID,100,VALID,-0.0849042,VALID,17.5186,VALID,214,VALID,0,
2000-03-14, 00:50:00,VALID,0,VALID,100,VALID,-0.0509425,VALID,17.5249,VALID,213,VALID,0,
2000-03-14, 00:51:00,VALID,0,VALID,100,VALID,-0.0679233,VALID,17.5378,VALID,207,VALID,0.0550987,
2000-03-14, 00:52:00,VALID,0,VALID,100,VALID,-0.0509425,VALID,17.5376,VALID,221,VALID,1.11657,
2000-03-14, 00:53:00,VALID,0,VALID,100,VALID,-0.101885,VALID,17.5511,VALID,228,VALID,1.13262,
2000-03-14, 00:54:00,VALID,0,VALID,100,VALID,-0.0849042,VALID,17.5643,VALID,229,VALID,1.15758,
2000-03-14, 00:55:00,VALID,0,VALID,100,VALID,-0.0679233,VALID,17.5479,VALID,232,VALID,1.05293,
2000-03-14, 00:56:01,VALID,0,VALID,100,VALID,-0.118866,VALID,17.538,VALID,231,VALID,0.847128,
2000-03-14, 00:57:00,VALID,0,VALID,100,VALID,-0.101885,VALID,17.5387,VALID,213,VALID,0.822316,
2000-03-14, 00:58:00,VALID,0,VALID,100,VALID,-0.0679233,VALID,17.5258,VALID,191,VALID,0.933799,
2000-03-14, 00:59:00,VALID,0,VALID,100,VALID,-0.0849042,VALID,17.4928,VALID,180,VALID,1.23672,
2000-03-14, 01:00:00,VALID,0,VALID,100,VALID,-0.0849042,VALID,17.4997,VALID,187,VALID,1.27148,
2000-03-14, 01:01:00,VALID,0,VALID,100,VALID,-0.101885,VALID,17.4991,VALID,194,VALID,1,
2000-03-14, 01:02:00,VALID,0,VALID,100,VALID,-0.0849042,VALID,17.5255,VALID,219,VALID,0.35,
2000-03-14, 01:03:00,VALID,0,VALID,100,VALID,-0.0849042,VALID,17.5251,VALID,239,VALID,0.60588,
2000-03-14, 01:04:00,VALID,0,VALID,100,VALID,-0.0679233,VALID,17.5221,VALID,224,VALID,0.747396,
2000-03-14, 01:05:00,VALID,0,VALID,100,VALID,-0.0849042,VALID,17.5184,VALID,217,VALID,0.605168,
2000-03-14, 01:06:00,VALID,0,VALID,100,VALID,-0.0679233,VALID,17.506,VALID,204,VALID,0.582031,
2000-03-14, 01:07:00,VALID,0,VALID,100,VALID,-0.0509425,VALID,17.4855,VALID,187,VALID,0.806526,
2000-03-14, 01:08:00,VALID,0,VALID,100,VALID,-0.0679233,VALID,17.4735,VALID,191,VALID,0.365954,
2000-03-14, 01:09:00,VALID,0,VALID,100,VALID,-0.0509425,VALID,17.4735,VALID,207,VALID,0.1991,
2000-03-14, 01:10:00,VALID,0,VALID,100,VALID,-0.101885,VALID,17.4769,VALID,229,VALID,0.207348,
2000-03-14, 01:11:00,VALID,0,VALID,100,VALID,-0.101885,VALID,17.4965,VALID,230,VALID,0.588894,
2000-03-14, 01:12:00,VALID,0,VALID,100,VALID,-0.0679233,VALID,17.5124,VALID,211,VALID,0.536951,
2000-03-14, 01:13:00,VALID,0,VALID,100,VALID,-0.0679233,VALID,17.5122,VALID,218,VALID,1.05509,
2000-03-14, 01:14:00,VALID,0,VALID,100,VALID,-0.0849042,VALID,17.5087,VALID,208,VALID,1.08181,
2000-03-14, 01:15:00,VALID,0,VALID,100,VALID,-0.0679233,VALID,17.5087,VALID,203,VALID,0.412007,
2000-03-14, 01:16:00,VALID,0,VALID,100,VALID,-0.0679233,VALID,17.5118,VALID,197,VALID,0.448808,
2000-03-14, 01:17:00,VALID,0,VALID,100,VALID,0.0169808,VALID,17.5143,VALID,207,VALID,0.563281,
2000-03-14, 01:18:00,VALID,0,VALID,100,VALID,0.0169808,VALID,17.4977,VALID,182,VALID,0.892681,
2000-03-14, 01:19:00,VALID,0,VALID,100,VALID,0,VALID,17.4892,VALID,159,VALID,0.810213,
2000-03-14, 01:20:00,VALID,0,VALID,100,VALID,0,VALID,17.4691,VALID,162,VALID,1.00391,
2000-03-14, 01:21:00,VALID,0,VALID,100,VALID,0,VALID,17.4532,VALID,169,VALID,0.950452,
2000-03-14, 01:22:00,VALID,0,VALID,100,VALID,0.0169808,VALID,17.45,VALID,183,VALID,1.12969,
2000-03-14, 01:23:00,VALID,0,VALID,100,VALID,0.0169808,VALID,17.4756,VALID,191,VALID,1.38857,
2000-03-14, 01:24:00,VALID,0,VALID,100,VALID,0.0679233,VALID,17.4945,VALID,199,VALID,1.2519,
2000-03-14, 01:25:00,VALID,0,VALID,100,VALID,0.0509425,VALID,17.5109,VALID,203,VALID,1.19211,
2000-03-14, 01:26:00,VALID,0,VALID,100,VALID,0,VALID,17.5272,VALID,204,VALID,1.48691,
2000-03-14, 01:27:00,VALID,0,VALID,100,VALID,0.0339617,VALID,17.5431,VALID,210,VALID,1.27508,
2000-03-14, 01:28:01,VALID,0,VALID,100,VALID,0.0169808,VALID,17.5595,VALID,217,VALID,0.947574,
2000-03-14, 01:29:00,VALID,0,VALID,100,VALID,0,VALID,17.5399,VALID,212,VALID,1.04551,
2000-03-14, 01:30:00,VALID,0,VALID,100,VALID,0.0169808,VALID,17.5206,VALID,210,VALID,0.879192,
2000-03-14, 01:31:00,VALID,0,VALID,100,VALID,0.0339617,VALID,17.5072,VALID,217,VALID,0.800781,
2000-03-14, 01:32:00,VALID,0,VALID,100,VALID,0.0169808,VALID,17.5203,VALID,216,VALID,0.730574,
2000-03-14, 01:33:00,VALID,0,VALID,100,VALID,0,VALID,17.5113,VALID,206,VALID,0.919671,
2000-03-14, 01:34:00,VALID,0,VALID,100,VALID,0,VALID,17.5081,VALID,195,VALID,0.779194,
2000-03-14, 01:35:00,VALID,0,VALID,100,VALID,0.0169808,VALID,17.5046,VALID,182,VALID,1.04121,
2000-03-14, 01:36:00,VALID,0,VALID,100,VALID,0.0169808,VALID,17.495,VALID,167,VALID,0.640625,
2000-03-14, 01:37:00,VALID,0,VALID,100,VALID,0,VALID,17.4696,VALID,173,VALID,0.761523,
2000-03-14, 01:38:00,VALID,0,VALID,100,VALID,0.0169808,VALID,17.4401,VALID,190,VALID,0.925977,
2000-03-14, 01:39:00,VALID,0,VALID,100,VALID,0.0169808,VALID,17.4306,VALID,214,VALID,0.848684,
2000-03-14, 01:40:00,VALID,0,VALID,100,VALID,0,VALID,17.4405,VALID,197,VALID,1.30288,
2000-03-14, 01:41:00,VALID,0,VALID,100,VALID,0,VALID,17.4405,VALID,206,VALID,1.08393,
2000-03-14, 01:42:00,VALID,0,VALID,100,VALID,0,VALID,17.4534,VALID,217,VALID,0.935938,
2000-03-14, 01:43:00,VALID,0,VALID,100,VALID,0,VALID,17.4663,VALID,213,VALID,0.985754,
2000-03-14, 01:44:00,VALID,0,VALID,100,VALID,0.0169808,VALID,17.4728,VALID,215,VALID,1.15543,
2000-03-14, 01:45:00,VALID,0,VALID,100,VALID,0,VALID,17.4825,VALID,214,VALID,1.1366,
2000-03-14, 01:46:00,VALID,0,VALID,100,VALID,0,VALID,17.4889,VALID,200,VALID,1.37131,
2000-03-14, 01:47:00,VALID,0,VALID,100,VALID,0,VALID,17.4887,VALID,195,VALID,1.28484,
2000-03-14, 01:48:00,VALID,0,VALID,100,VALID,0,VALID,17.4823,VALID,175,VALID,0.867188,
2000-03-14, 01:49:00,VALID,0,VALID,100,VALID,0,VALID,17.476,VALID,187,VALID,1.25401,
2000-03-14, 01:50:00,VALID,0,VALID,100,VALID,0,VALID,17.4795,VALID,189,VALID,1.37457,
2000-03-14, 01:51:00,VALID,0,VALID,99.9967,VALID,0,VALID,17.4887,VALID,181,VALID,1.28146,
2000-03-14, 01:52:00,VALID,0,VALID,99.9908,VALID,0,VALID,17.5115,VALID,188,VALID,1.30777,
2000-03-14, 01:53:00,VALID,0,VALID,99.9837,VALID,0,VALID,17.544,VALID,191,VALID,1.31777,
2000-03-14, 01:54:00,VALID,0,VALID,99.9418,VALID,0,VALID,17.5632,VALID,191,VALID,1.2831,
2000-03-14, 01:55:00,VALID,0,VALID,99.9278,VALID,0,VALID,17.5821,VALID,191,VALID,1.35423,
2000-03-14, 01:56:00,VALID,0,VALID,99.8998,VALID,0.0509425,VALID,17.6081,VALID,191,VALID,1.33574,
2000-03-14, 01:57:00,VALID,0,VALID,99.8858,VALID,0.0169808,VALID,17.6471,VALID,190,VALID,1.11637,
2000-03-14, 01:58:00,VALID,0,VALID,99.8324,VALID,0,VALID,17.6503,VALID,188,VALID,1.04375,
2000-03-14, 01:59:00,VALID,0,VALID,99.826,VALID,0,VALID,17.663,VALID,183,VALID,1.01049,
2000-03-14, 02:00:00,VALID,0,VALID,99.7993,VALID,0.0169808,VALID,17.6533,VALID,170,VALID,0.64337,
2000-03-14, 02:01:00,VALID,0,VALID,99.7701,VALID,0.0169808,VALID,17.6273,VALID,173,VALID,0.648838,
2000-03-14, 02:02:00,VALID,0,VALID,99.7968,VALID,0.0169808,VALID,17.6208,VALID,182,VALID,0.719595,
2000-03-14, 02:03:00,VALID,0,VALID,99.8299,VALID,0.0169808,VALID,17.6114,VALID,189,VALID,0.762747,
2000-03-14, 02:04:00,VALID,0,VALID,99.8591,VALID,0.0169808,VALID,17.6075,VALID,188,VALID,0.787212,
2000-03-14, 02:05:00,VALID,0,VALID,99.8693,VALID,0,VALID,17.6079,VALID,196,VALID,0.602539,
2000-03-14, 02:06:00,VALID,0,VALID,99.8566,VALID,0,VALID,17.6148,VALID,189,VALID,0.530297,
2000-03-14, 02:07:00,VALID,0,VALID,99.8604,VALID,0,VALID,17.5823,VALID,199,VALID,0.385352,
2000-03-14, 02:08:00,VALID,0,VALID,99.8922,VALID,0,VALID,17.5694,VALID,200,VALID,0.285473,
2000-03-14, 02:09:00,VALID,0,VALID,99.8973,VALID,0,VALID,17.5694,VALID,199,VALID,0.557292,
2000-03-14, 02:10:00,VALID,0,VALID,99.9074,VALID,0,VALID,17.5533,VALID,197,VALID,0.497944,
2000-03-14, 02:11:00,VALID,0,VALID,99.9214,VALID,0.0169808,VALID,17.5466,VALID,170,VALID,0.504492,
2000-03-14, 02:12:00,VALID,0,VALID,99.9621,VALID,0.0169808,VALID,17.5401,VALID,169,VALID,0.399957,
2000-03-14, 02:13:00,VALID,0,VALID,99.9507,VALID,0,VALID,17.5434,VALID,170,VALID,0.3,
2000-03-14, 02:14:00,VALID,0,VALID,99.9468,VALID,-0.0169808,VALID,17.527,VALID,171,VALID,0.162695,
2000-03-14, 02:15:00,VALID,0,VALID,99.9049,VALID,0,VALID,17.5044,VALID,171,VALID,0,
2000-03-14, 02:16:00,VALID,0,VALID,99.9418,VALID,0,VALID,17.4857,VALID,171,VALID,0,
2000-03-14, 02:17:00,VALID,0,VALID,99.971,VALID,0.0169808,VALID,17.485,VALID,171,VALID,0,
2000-03-14, 02:18:00,VALID,0,VALID,99.9735,VALID,-0.0509425,VALID,17.4834,VALID,171,VALID,0,
2000-03-14, 02:19:00,VALID,0,VALID,99.9621,VALID,-0.101885,VALID,17.4638,VALID,172,VALID,0,
2000-03-14, 02:20:00,VALID,0,VALID,99.9697,VALID,-0.0849042,VALID,17.461,VALID,173,VALID,0,
2000-03-14, 02:21:00,VALID,0,VALID,99.9822,VALID,-0.101885,VALID,17.4513,VALID,190,VALID,0,
2000-03-14, 02:22:00,VALID,0,VALID,99.998,VALID,-0.0679233,VALID,17.4543,VALID,190,VALID,0,
2000-03-14, 02:23:00,VALID,0,VALID,99.9977,VALID,-0.0849042,VALID,17.4578,VALID,192,VALID,0,
2000-03-14, 02:24:00,VALID,0,VALID,99.999,VALID,-0.0339617,VALID,17.4547,VALID,193,VALID,0,
2000-03-14, 02:25:00,VALID,0,VALID,100,VALID,-0.0849042,VALID,17.4446,VALID,193,VALID,0,
2000-03-14, 02:26:00,VALID,0,VALID,100,VALID,-0.0849042,VALID,17.4513,VALID,193,VALID,0,
2000-03-14, 02:27:00,VALID,0,VALID,100,VALID,-0.0679233,VALID,17.4608,VALID,193,VALID,0,
2000-03-14, 02:28:00,VALID,0,VALID,100,VALID,-0.0679233,VALID,17.4511,VALID,193,VALID,0,
2000-03-14, 02:29:00,VALID,0,VALID,100,VALID,-0.0679233,VALID,17.4345,VALID,193,VALID,0,
2000-03-14, 02:30:00,VALID,0,VALID,99.999,VALID,-0.0679233,VALID,17.4287,VALID,193,VALID,0,
2000-03-14, 02:31:00,VALID,0,VALID,100,VALID,-0.0849042,VALID,17.4093,VALID,197,VALID,0,
2000-03-14, 02:32:00,VALID,0,VALID,100,VALID,-0.0849042,VALID,17.4059,VALID,198,VALID,0,
2000-03-14, 02:33:00,VALID,0,VALID,99.9908,VALID,-0.0339617,VALID,17.3955,VALID,189,VALID,0,
2000-03-14, 02:34:00,VALID,0,VALID,99.9761,VALID,0,VALID,17.3564,VALID,180,VALID,0,
2000-03-14, 02:35:00,VALID,0,VALID,99.999,VALID,0,VALID,17.34,VALID,180,VALID,0,
2000-03-14, 02:36:00,VALID,0,VALID,99.998,VALID,0,VALID,17.3275,VALID,180,VALID,0,
2000-03-14, 02:37:00,VALID,0,VALID,99.9967,VALID,0,VALID,17.3015,VALID,180,VALID,0,
2000-03-14, 02:38:00,VALID,0,VALID,99.999,VALID,0,VALID,17.2886,VALID,180,VALID,0,
2000-03-14, 02:39:00,VALID,0,VALID,99.999,VALID,-0.0169808,VALID,17.2854,VALID,180,VALID,0,
2000-03-14, 02:40:00,VALID,0,VALID,100,VALID,0,VALID,17.2759,VALID,180,VALID,0,
2000-03-14, 02:41:00,VALID,0,VALID,100,VALID,-0.0509425,VALID,17.2759,VALID,180,VALID,0,
2000-03-14, 02:42:00,VALID,0,VALID,100,VALID,-0.0169808,VALID,17.269,VALID,182,VALID,0,
2000-03-14, 02:43:00,VALID,0,VALID,100,VALID,-0.0169808,VALID,17.2888,VALID,193,VALID,0,
2000-03-14, 02:44:00,VALID,0,VALID,100,VALID,-0.0339617,VALID,17.3015,VALID,193,VALID,0,
2000-03-14, 02:45:01,VALID,0,VALID,100,VALID,0,VALID,17.3278,VALID,200,VALID,0.527644,
2000-03-14, 02:46:00,VALID,0,VALID,100,VALID,-0.0169808,VALID,17.3308,VALID,206,VALID,0.701275,
2000-03-14, 02:47:00,VALID,0,VALID,100,VALID,-0.0509425,VALID,17.3372,VALID,210,VALID,0.349023,
2000-03-14, 02:48:00,VALID,0,VALID,100,VALID,-0.0339617,VALID,17.3568,VALID,209,VALID,0,
2000-03-14, 02:49:00,VALID,0,VALID,100,VALID,-0.0169808,VALID,17.3727,VALID,207,VALID,0,
2000-03-14, 02:50:00,VALID,0,VALID,100,VALID,-0.0339617,VALID,17.3919,VALID,220,VALID,0,
2000-03-14, 02:51:00,VALID,0,VALID,100,VALID,-0.0169808,VALID,17.402,VALID,230,VALID,0,
2000-03-14, 02:52:00,VALID,0,VALID,100,VALID,0,VALID,17.4308,VALID,228,VALID,0,
2000-03-14, 02:53:00,VALID,0,VALID,100,VALID,0,VALID,17.4405,VALID,229,VALID,0,
2000-03-14, 02:54:00,VALID,0,VALID,100,VALID,-0.0339617,VALID,17.4666,VALID,230,VALID,0,
2000-03-14, 02:55:00,VALID,0,VALID,100,VALID,-0.0169808,VALID,17.495,VALID,230,VALID,0,
2000-03-14, 02:56:01,VALID,0,VALID,100,VALID,-0.0169808,VALID,17.5309,VALID,230,VALID,0,
2000-03-14, 02:57:00,VALID,0,VALID,100,VALID,0,VALID,17.5404,VALID,226,VALID,0,
2000-03-14, 02:58:00,VALID,0,VALID,100,VALID,0,VALID,17.5143,VALID,223,VALID,0,
2000-03-14, 02:59:00,VALID,0,VALID,100,VALID,-0.0169808,VALID,17.473,VALID,223,VALID,0,
2000-03-14, 03:00:00,VALID,0,VALID,100,VALID,-0.0169808,VALID,17.4276,VALID,223,VALID,0,
2000-03-14, 03:01:00,VALID,0,VALID,100,VALID,0,VALID,17.3919,VALID,222,VALID,0,
2000-03-14, 03:02:00,VALID,0,VALID,100,VALID,-0.0169808,VALID,17.3887,VALID,217,VALID,0,
2000-03-14, 03:03:00,VALID,0,VALID,100,VALID,-0.0849042,VALID,17.3897,VALID,217,VALID,0,
2000-03-14, 03:04:00,VALID,0,VALID,100,VALID,-0.101885,VALID,17.3807,VALID,154,VALID,0,
2000-03-14, 03:05:00,VALID,0,VALID,100,VALID,-0.118866,VALID,17.3319,VALID,135,VALID,0,
2000-03-14, 03:06:00,VALID,0,VALID,100,VALID,-0.101885,VALID,17.3254,VALID,124,VALID,0,
2000-03-14, 03:07:01,VALID,0,VALID,100,VALID,-0.101885,VALID,17.3418,VALID,124,VALID,0,
2000-03-14, 03:08:00,VALID,0,VALID,100,VALID,-0.101885,VALID,17.3581,VALID,124,VALID,0,
2000-03-14, 03:09:00,VALID,0,VALID,100,VALID,-0.118866,VALID,17.3641,VALID,124,VALID,0,
2000-03-14, 03:10:00,VALID,0,VALID,100,VALID,-0.135847,VALID,17.4063,VALID,124,VALID,0,
2000-03-14, 03:11:00,VALID,0,VALID,100,VALID,-0.135847,VALID,17.4285,VALID,123,VALID,0,
2000-03-14, 03:12:00,VALID,0,VALID,100,VALID,-0.118866,VALID,17.4771,VALID,117,VALID,0,
2000-03-14, 03:13:00,VALID,0,VALID,100,VALID,-0.101885,VALID,17.5193,VALID,104,VALID,0,
2000-03-14, 03:14:00,VALID,0,VALID,100,VALID,-0.118866,VALID,17.5094,VALID,104,VALID,0,
2000-03-14, 03:15:00,VALID,0,VALID,100,VALID,-0.118866,VALID,17.5647,VALID,90,VALID,0,
2000-03-14, 03:16:00,VALID,0,VALID,100,VALID,-0.135847,VALID,17.662,VALID,89,VALID,0,
2000-03-14, 03:17:00,VALID,0,VALID,100,VALID,-0.118866,VALID,17.6773,VALID,94,VALID,0,
2000-03-14, 03:18:01,VALID,0,VALID,100,VALID,-0.0339617,VALID,17.7087,VALID,101,VALID,0,
2000-03-14, 03:19:00,VALID,0,VALID,100,VALID,-0.0339617,VALID,17.7377,VALID,113,VALID,0,
2000-03-14, 03:20:00,VALID,0,VALID,100,VALID,-0.0509425,VALID,17.7534,VALID,120,VALID,0,
2000-03-14, 03:21:00,VALID,0,VALID,100,VALID,0,VALID,17.779,VALID,122,VALID,0,
2000-03-14, 03:22:00,VALID,0,VALID,100,VALID,0,VALID,17.7827,VALID,122,VALID,0,
2000-03-14, 03:23:00,VALID,0,VALID,100,VALID,-0.0169808,VALID,17.7857,VALID,122,VALID,0,
2000-03-14, 03:24:00,VALID,0,VALID,100,VALID,0,VALID,17.7889,VALID,122,VALID,0,
2000-03-14, 03:25:00,VALID,0,VALID,100,VALID,0.0169808,VALID,17.7889,VALID,122,VALID,0,
2000-03-14, 03:26:00,VALID,0,VALID,100,VALID,-0.0169808,VALID,17.7924,VALID,122,VALID,0,
2000-03-14, 03:27:00,VALID,0,VALID,100,VALID,0.0169808,VALID,17.7928,VALID,124,VALID,0,
2000-03-14, 03:28:00,VALID,0,VALID,100,VALID,-0.0169808,VALID,17.7695,VALID,139,VALID,0,
2000-03-14, 03:29:01,VALID,0,VALID,100,VALID,0.0169808,VALID,17.7889,VALID,143,VALID,0,
2000-03-14, 03:30:00,VALID,0,VALID,100,VALID,0,VALID,17.8147,VALID,144,VALID,0,
2000-03-14, 03:31:00,VALID,0,VALID,100,VALID,-0.0169808,VALID,17.8371,VALID,144,VALID,0,
2000-03-14, 03:32:00,VALID,0,VALID,100,VALID,0,VALID,17.8369,VALID,145,VALID,0,
2000-03-14, 03:33:00,VALID,0,VALID,100,VALID,0,VALID,17.8532,VALID,146,VALID,0,
2000-03-14, 03:34:00,VALID,0,VALID,100,VALID,0.0339617,VALID,17.8565,VALID,146,VALID,0,
2000-03-14, 03:35:00,VALID,0,VALID,100,VALID,0.0169808,VALID,17.8632,VALID,146,VALID,0,
2000-03-14, 03:36:00,VALID,0,VALID,100,VALID,0.0169808,VALID,17.853,VALID,146,VALID,0,
2000-03-14, 03:37:00,VALID,0,VALID,100,VALID,0.0339617,VALID,17.8664,VALID,146,VALID,0,
2000-03-14, 03:38:00,VALID,0,VALID,100,VALID,0,VALID,17.8858,VALID,146,VALID,0,
2000-03-14, 03:39:00,VALID,0,VALID,100,VALID,0.0169808,VALID,17.8687,VALID,146,VALID,0,
2000-03-14, 03:40:01,VALID,0,VALID,100,VALID,0.0169808,VALID,17.8692,VALID,146,VALID,0,
2000-03-14, 03:41:00,VALID,0,VALID,100,VALID,0.0339617,VALID,17.8595,VALID,146,VALID,0,
2000-03-14, 03:42:00,VALID,0,VALID,100,VALID,0,VALID,17.8337,VALID,146,VALID,0,
2000-03-14, 03:43:00,VALID,0,VALID,100,VALID,0,VALID,17.8433,VALID,146,VALID,0,
2000-03-14, 03:44:00,VALID,0,VALID,100,VALID,0.0169808,VALID,17.8468,VALID,146,VALID,0,
2000-03-14, 03:45:00,VALID,0,VALID,99.9893,VALID,0,VALID,17.8369,VALID,146,VALID,0,
2000-03-14, 03:46:00,VALID,0,VALID,99.9873,VALID,0,VALID,17.8044,VALID,146,VALID,0,
2000-03-14, 03:47:00,VALID,0,VALID,99.9967,VALID,0.0339617,VALID,17.7981,VALID,146,VALID,0,
2000-03-14, 03:48:00,VALID,0,VALID,99.999,VALID,0,VALID,17.7917,VALID,146,VALID,0,
2000-03-14, 03:49:00,VALID,0,VALID,99.9977,VALID,0,VALID,17.7756,VALID,146,VALID,0,
2000-03-14, 03:50:00,VALID,0,VALID,99.9969,VALID,0.0169808,VALID,17.7624,VALID,146,VALID,0,
2000-03-14, 03:51:01,VALID,0,VALID,99.9977,VALID,0.0169808,VALID,17.756,VALID,146,VALID,0,
2000-03-14, 03:52:00,VALID,0,VALID,99.9886,VALID,0,VALID,17.7301,VALID,146,VALID,0,
2000-03-14, 03:53:00,VALID,0,VALID,100,VALID,0.0509425,VALID,17.72,VALID,146,VALID,0,
2000-03-14, 03:54:00,VALID,0,VALID,100,VALID,0.0509425,VALID,17.7398,VALID,146,VALID,0,
2000-03-14, 03:55:00,VALID,0,VALID,100,VALID,0.0509425,VALID,17.7495,VALID,146,VALID,0,
2000-03-14, 03:56:00,VALID,0,VALID,100,VALID,0.0509425,VALID,17.7818,VALID,148,VALID,0,
2000-03-14, 03:57:00,VALID,0,VALID,100,VALID,0.0169808,VALID,17.8076,VALID,164,VALID,0,
2000-03-14, 03:58:00,VALID,0,VALID,99.9893,VALID,0.0509425,VALID,17.8076,VALID,169,VALID,0,
2000-03-14, 03:59:00,VALID,0,VALID,99.896,VALID,0.0509425,VALID,17.759,VALID,160,VALID,0,
2000-03-14, 04:00:00,VALID,0,VALID,99.8782,VALID,0.0339617,VALID,17.7142,VALID,156,VALID,0.22526,
2000-03-14, 04:01:00,VALID,0,VALID,99.9456,VALID,0.0169808,VALID,17.7078,VALID,161,VALID,0.917383,
2000-03-14, 04:02:01,VALID,0,VALID,99.9507,VALID,0,VALID,17.7112,VALID,170,VALID,0.648633,
2000-03-14, 04:03:00,VALID,0,VALID,99.9672,VALID,-0.0339617,VALID,17.7121,VALID,179,VALID,0.200247,
2000-03-14, 04:04:00,VALID,0,VALID,99.9532,VALID,-0.0849042,VALID,17.7029,VALID,190,VALID,0,
2000-03-14, 04:05:00,VALID,0,VALID,99.9214,VALID,-0.0849042,VALID,17.6803,VALID,194,VALID,0,
2000-03-14, 04:06:00,VALID,0,VALID,99.9201,VALID,-0.0849042,VALID,17.6547,VALID,196,VALID,0.24375,
2000-03-14, 04:07:00,VALID,0,VALID,99.9392,VALID,-0.101885,VALID,17.6351,VALID,195,VALID,0.327665,
2000-03-14, 04:08:00,VALID,0,VALID,99.924,VALID,-0.101885,VALID,17.5963,VALID,189,VALID,0.587582,
2000-03-14, 04:09:00,VALID,0,VALID,99.9316,VALID,-0.118866,VALID,17.5707,VALID,197,VALID,0.253788,
2000-03-14, 04:10:00,VALID,0,VALID,99.9519,VALID,-0.118866,VALID,17.5546,VALID,200,VALID,0.0802365,
2000-03-14, 04:11:00,VALID,0,VALID,99.9733,VALID,-0.101885,VALID,17.5313,VALID,209,VALID,0.12859,
2000-03-14, 04:12:01,VALID,0,VALID,100,VALID,-0.101885,VALID,17.5313,VALID,209,VALID,0.300676,
2000-03-14, 04:13:00,VALID,0,VALID,100,VALID,-0.0849042,VALID,17.541,VALID,205,VALID,0.1248,
2000-03-14, 04:14:00,VALID,0,VALID,100,VALID,-0.0849042,VALID,17.5611,VALID,203,VALID,0,
2000-03-14, 04:15:00,VALID,0,VALID,100,VALID,-0.0849042,VALID,17.5737,VALID,192,VALID,0,
2000-03-14, 04:16:00,VALID,0,VALID,100,VALID,-0.0849042,VALID,17.5804,VALID,176,VALID,0.00123355,
2000-03-14, 04:17:00,VALID,0,VALID,100,VALID,-0.101885,VALID,17.5966,VALID,173,VALID,0,
2000-03-14, 04:18:00,VALID,0,VALID,100,VALID,-0.0509425,VALID,17.5761,VALID,174,VALID,0,
2000-03-14, 04:19:00,VALID,0,VALID,100,VALID,0,VALID,17.5756,VALID,181,VALID,0,
2000-03-14, 04:20:00,VALID,0,VALID,100,VALID,0.0169808,VALID,17.5595,VALID,189,VALID,0,
2000-03-14, 04:21:00,VALID,0,VALID,100,VALID,0,VALID,17.5623,VALID,237,VALID,0,
2000-03-14, 04:22:00,VALID,0,VALID,100,VALID,0.0169808,VALID,17.589,VALID,237,VALID,0,